Total_Precipitation_Accumulation
2.72 3.40 4.66 4.49 3.85 3.20 2.99 3.14 3.22 3.03 2.92 2.91 2.98 2.98 3.07 3.14 3.25 3.23 3.07 3.16 3.22 3.29 3.16 2.95 2.81 2.75 2.79 2.81 2.75 2.54 2.23 2.04 2.15 2.25 2.33 2.46 2.65 2.83 2.98 3.17 3.08 2.41 2.27
2.13 3.06 4.24 4.08 3.43 2.74 2.76 2.76 2.92 2.82 2.72 2.79 2.95 2.86 2.75 2.87 3.08 3.13 3.03 3.19 3.22 3.25 3.10 2.90 2.64 2.44 2.39 2.43 2.44 2.21 2.02 2.21 2.52 2.74 3.02 3.04 3.09 3.09 3.12 3.22 3.27 2.62 2.35
1.83 2.46 3.28 3.60 2.99 2.62 2.57 2.48 2.61 2.59 2.52 2.76 2.96 2.88 2.74 2.78 3.09 3.17 3.11 3.18 3.36 3.33 2.98 2.77 2.53 2.18 2.09 2.17 2.09 2.03 2.10 2.39 2.99 3.43 3.54 3.09 2.65 2.93 3.02 3.13 3.03 2.45 2.26
1.56 1.91 2.43 2.89 2.53 2.36 2.30 2.39 2.49 2.48 2.46 2.60 2.71 2.82 2.81 2.81 3.09 3.28 3.21 3.31 3.49 3.22 2.92 2.69 2.37 1.99 1.85 1.91 2.00 2.06 2.25 2.63 3.11 3.63 3.37 2.79 2.30 2.54 2.66 2.58 2.49 2.25 2.12
1.46 1.71 2.12 2.31 2.25 2.20 2.20 2.39 2.52 2.53 2.47 2.55 2.70 2.80 2.92 3.03 3.14 3.35 3.35 3.46 3.53 3.40 3.04 2.65 2.36 2.03 1.88 1.85 1.88 2.02 2.33 2.81 3.23 3.28 2.66 2.64 2.73 2.64 2.46 2.33 2.33 2.11 1.86
1.51 1.75 1.95 2.07 2.04 2.15 2.16 2.40 2.58 2.67 2.55 2.55 2.74 2.73 2.83 3.08 3.35 3.59 3.59 3.61 3.71 3.50 3.04 2.65 2.34 2.08 1.90 1.84 1.94 2.06 2.48 2.93 2.91 2.35 2.12 2.24 2.17 2.43 2.33 2.27 2.15 1.90 1.62
1.45 1.79 1.91 2.06 2.10 2.29 2.44 2.61 2.72 2.70 2.54 2.51 2.58 2.50 2.63 3.06 3.41 3.63 3.70 3.69 3.67 3.43 2.96 2.57 2.24 2.02 1.88 1.90 2.03 2.04 2.34 2.71 2.38 2.00 1.86 2.04 1.88 2.06 2.22 2.21 2.12 1.81 1.54
1.31 1.67 1.90 2.23 2.31 2.38 2.56 2.90 3.03 2.78 2.64 2.56 2.59 2.47 2.56 2.83 3.24 3.48 3.72 3.73 3.54 3.29 2.82 2.50 2.23 2.00 1.95 2.00 2.07 2.05 2.20 2.18 1.77 1.64 1.63 1.66 1.65 1.81 2.09 1.98 1.90 1.73 1.49
1.36 1.51 1.81 2.22 2.45 2.58 2.69 2.95 3.05 3.01 2.91 2.82 2.77 2.59 2.64 2.84 3.09 3.40 3.73 3.69 3.52 3.32 2.92 2.59 2.32 2.13 2.12 2.10 2.09 2.05 2.18 2.28 1.82 1.71 1.62 1.61 1.58 1.66 1.95 1.84 1.74 1.71 1.61
1.65 1.54 1.65 2.02 2.44 2.58 2.65 2.94 3.12 3.05 3.00 2.97 2.97 2.82 3.01 3.17 3.19 3.33 3.62 3.77 3.61 3.39 3.03 2.82 2.56 2.39 2.37 2.17 2.11 2.25 2.40 2.20 1.80 1.84 1.79 1.37 1.39 1.66 2.01 2.04 1.94 1.94 1.80
1.87 1.87 1.89 1.88 2.00 2.25 2.39 2.69 3.25 3.23 3.14 3.16 3.31 3.40 3.60 3.89 3.84 3.89 3.80 4.01 3.98 3.75 3.59 3.31 3.04 2.70 2.59 2.33 2.43 2.56 2.33 2.06 2.19 2.14 1.74 1.34 1.42 1.99 2.28 2.29 2.14 2.11 2.06
1.97 2.02 2.27 2.11 1.97 2.08 2.13 2.94 3.80 3.67 3.50 3.55 3.74 3.85 4.17 4.31 4.60 4.07 4.38 4.72 4.84 4.76 4.56 4.32 4.13 3.45 2.71 2.26 2.49 2.61 2.19 2.14 2.31 2.09 1.67 1.52 1.68 2.21 2.51 2.35 2.26 2.22 2.16
2.25 2.12 2.10 2.23 2.34 2.40 2.55 2.91 3.41 3.86 3.91 3.92 3.89 3.89 4.18 4.11 4.30 4.34 4.74 5.54 5.65 5.13 4.72 4.84 4.64 3.67 3.12 3.12 2.91 2.62 2.52 2.29 2.34 2.07 1.84 1.84 1.95 2.35 2.65 2.52 2.43 2.36 2.15
2.83 2.80 2.82 2.82 2.86 2.92 2.80 2.80 2.95 3.24 3.31 3.31 3.47 3.55 3.70 4.07 4.26 4.44 4.80 4.89 4.97 4.80 5.05 4.94 4.78 4.14 3.74 3.38 3.06 3.03 3.03 2.71 2.52 2.42 2.42 2.29 2.29 2.55 2.87 2.85 2.63 2.54 2.44
3.34 3.53 4.15 4.11 3.62 3.38 3.20 3.08 2.80 3.02 2.87 2.69 2.88 3.20 3.32 3.59 3.98 4.20 4.11 4.15 3.90 4.12 4.49 4.66 4.22 4.25 4.03 3.89 3.66 3.40 3.39 3.11 2.81 2.69 2.79 2.85 2.69 2.63 2.90 3.09 2.99 2.97 3.02
4.07 4.12 4.40 4.96 4.38 3.78 3.33 3.22 3.03 2.84 2.91 2.79 2.91 2.87 3.15 3.37 3.53 3.66 3.59 3.71 3.61 3.75 3.92 3.95 3.91 4.25 4.22 4.05 3.67 3.34 3.23 3.21 3.03 2.82 3.01 3.03 2.96 2.67 2.76 3.19 3.46 3.49 3.58
4.60 4.77 4.90 5.23 4.97 4.56 4.04 3.56 3.14 2.95 2.78 2.87 3.04 2.84 2.90 3.10 3.19 3.21 3.28 3.32 3.40 3.35 3.47 3.50 3.56 3.87 3.99 3.90 3.67 3.36 3.19 3.22 3.11 3.05 2.96 3.04 2.97 2.92 2.84 2.99 3.31 3.45 3.75
5.25 5.54 5.59 5.32 5.40 5.15 4.59 4.08 3.68 3.46 3.24 3.08 2.94 2.81 2.60 2.67 2.69 2.82 2.78 2.78 2.87 2.88 3.02 3.31 3.36 3.63 3.91 4.00 3.95 3.55 3.45 3.41 3.17 3.19 3.05 3.05 3.33 3.03 3.21 3.37 3.35 3.28 3.70
6.41 6.86 6.64 6.00 5.69 5.33 4.85 4.44 4.33 4.19 3.89 3.51 3.28 3.03 2.86 2.62 2.54 2.65 2.76 2.83 2.52 2.61 2.81 2.72 3.16 3.46 3.80 3.88 3.44 3.48 3.28 3.21 3.23 3.00 3.06 2.96 3.18 3.27 3.45 3.46 3.48 3.35 3.72
6.70 7.42 7.33 6.67 5.93 5.37 5.05 4.75 4.72 4.49 4.12 3.65 3.44 3.28 2.94 2.81 2.60 2.72 2.60 2.45 2.25 2.48 2.87 3.04 3.50 3.56 3.54 3.55 2.98 3.20 3.01 2.68 2.81 2.97 2.84 2.94 2.99 2.79 3.11 3.47 3.69 3.20 3.57
5.73 6.28 6.19 5.59 5.19 4.78 4.30 3.85 3.90 3.83 3.61 3.37 3.16 2.95 2.94 2.88 2.75 2.82 2.56 2.74 2.41 2.47 2.64 2.79 3.14 3.35 3.32 3.29 3.58 3.63 3.16 2.68 2.68 2.62 2.52 2.79 2.82 2.81 3.19 3.67 3.81 3.63 3.21
4.23 4.46 3.96 3.79 3.83 3.56 3.40 3.44 3.43 3.33 3.04 2.89 2.91 3.15 2.82 2.82 2.71 2.52 2.70 2.51 2.48 2.72 2.76 2.91 3.17 3.29 3.26 3.34 3.53 3.88 3.61 3.51 2.96 2.22 2.44 2.58 2.68 2.92 2.95 3.08 3.42 3.74 3.35
3.01 3.00 2.78 2.76 3.10 3.13 3.23 3.32 3.34 3.34 3.17 3.02 2.88 3.05 2.75 2.56 2.52 2.59 2.54 2.62 2.81 2.52 2.78 2.99 3.03 3.28 3.39 3.26 3.23 3.67 3.66 3.57 3.06 2.40 2.25 2.33 2.56 2.87 2.87 2.97 2.77 3.04 3.28
2.12 2.24 2.51 2.63 2.80 2.76 2.93 2.91 2.85 2.65 2.55 2.50 2.51 2.68 2.79 2.53 2.40 2.42 2.56 2.88 3.04 2.78 3.00 2.56 2.75 3.12 3.35 3.27 3.27 3.05 2.90 2.98 3.17 3.03 2.58 2.31 2.44 2.57 2.65 2.65 2.75 3.02 3.20
1.82 2.07 2.41 2.55 2.63 2.57 2.57 2.69 2.89 2.82 2.84 2.73 2.69 2.98 3.02 3.04 2.83 2.49 2.49 2.79 2.99 2.99 3.09 2.92 3.15 2.96 2.91 2.93 3.03 3.03 2.96 2.81 2.59 2.80 2.84 2.65 2.51 2.21 2.16 2.22 2.40 2.59 2.66
1.80 1.88 2.10 2.28 2.50 2.53 2.56 2.64 2.68 2.75 2.95 2.95 2.95 2.83 2.71 2.83 2.81 2.56 2.54 2.87 2.92 2.95 3.13 3.01 2.99 2.86 2.90 2.92 2.82 2.72 2.99 2.97 2.77 2.85 2.61 2.56 2.48 2.00 1.84 1.92 2.01 2.13 2.31